• Join FlightAware (Why Join?)
  • Login
  • US Flag 
08:08PM EDT


 

Airport Tracker/Info


-or-


 

Live Flight TrackerFlight Track Log ✈ CTL18 ✈ 11-Jul-2013 ✈ KYIP - KBKL

Flight Track Log - Related Links

Times and Time Zones

All times are in EDT time to prevent confusion due to time zone crossing. See the CTL18 flight status page for this flight to view local times or setup timezone preferences in your user account.

Time Position Orientation Groundspeed Altitude Reporting Facility
EDT Latitude Longitude Course Direction KTS MPH feet Rate Location/Type
08:59PM 42.2608 -83.5683 308° West 117 135 2,000  Level Cleveland Center
09:00PM 42.2703 -83.6053 289° West 115 132 2,800 960 Climbing Cleveland Center
09:01PM 42.2908 -83.6231 327° Northwest 105 121 3,900 780 Climbing Cleveland Center
09:02PM 42.2772 -83.5806 113° Southeast 138 159 4,500 480 Climbing Cleveland Center
09:03PM 42.2619 -83.5292 112° Southeast 146 168 4,900 240 Climbing Cleveland Center
09:04PM 42.2381 -83.4803 123° Southeast 171 197 5,000  Climbing Cleveland Center
09:05PM 42.2042 -83.4172 126° Southeast 183 211 5,000  Level Cleveland Center
09:06PM 42.1892 -83.3578 109° East 178 205 5,000  Level Cleveland Center
09:07PM 42.1803 -83.2872 100° East 176 203 5,100  Climbing Cleveland Center
09:08PM 42.1736 -83.2169 97° East 183 211 5,000 -60 Descending Cleveland Center
09:09PM 42.1667 -83.1578 99° East 182 209 5,000  Level Cleveland Center
09:10PM 42.1556 -83.0956 104° East 183 211 5,000  Level Cleveland Center
09:12PM 42.1181 -82.9989 118° Southeast 199 229 5,000  Level Cleveland Center
09:13PM 42.0900 -82.9364 121° Southeast 199 229 5,000  Level Cleveland Center
09:13PM 42.0700 -82.8936 122° Southeast 191 220 5,000  Level Cleveland Center
09:14PM 42.0442 -82.8339 120° Southeast 183 211 5,000  Level Cleveland Center
09:15PM 42.0119 -82.7714 125° Southeast 188 216 5,000  Level Cleveland Center
09:17PM 41.9800 -82.7006 121° Southeast 185 213 5,100  Climbing Cleveland Center
09:17PM 41.9619 -82.6608 121° Southeast 185 213 5,000 -60 Descending Cleveland Center
09:18PM 41.9339 -82.5956 120° Southeast 182 209 5,000  Level Cleveland Center
09:19PM 41.9058 -82.5333 121° Southeast 184 212 5,000  Level Cleveland Center
09:21PM 41.8797 -82.4739 121° Southeast 184 212 5,000  Level Cleveland Center
09:21PM 41.8556 -82.4203 121° Southeast 182 209 5,000  Level Cleveland Center
09:22PM 41.8294 -82.3611 121° Southeast 180 207 5,000  Level Cleveland Center
09:24PM 41.7992 -82.2933 121° Southeast 183 211 5,000  Level Cleveland Center
09:25PM 41.7750 -82.2425 123° Southeast 179 206 5,000  Level Cleveland Center
09:26PM 41.7464 -82.1889 126° Southeast 179 206 5,000  Level Cleveland Center
09:27PM 41.7203 -82.1217 117° Southeast 177 204 5,000 -240 Level Cleveland Center
09:28PM 41.6939 -82.0681 123° Southeast 184 212 4,600 -480 Descending Cleveland Center
09:28PM 41.6675 -82.0203 126° Southeast 192 221 4,200 -540 Descending Cleveland Center
09:30PM 41.6328 -81.9528 125° Southeast 186 214 3,600 -600 Descending Cleveland Center
09:31PM 41.6083 -81.9022 123° Southeast 184 212 3,100 -840 Descending Cleveland Center
09:32PM 41.5778 -81.8461 126° Southeast 181 208 2,000 -780 Descending Cleveland Center
09:33PM 41.5514 -81.7872 121° Southeast 179 206 1,600 -300 Descending Cleveland Center
09:34PM 41.5289 -81.7425 124° Southeast 140 161 1,500 -120 Descending Cleveland Center
09:36PM 41.5175 -81.6833 108° East  Level Estimated
09:43PM 41.5175 -81.6833 108° East  Level Estimated